GW2622 Weather Reports


time (UTC)temp
F
wind
direction
speed
knots
gust
knots
rain 1hr
in
rain 24hr
in
rain mn
in
humidity
%
barometer
mb
20260503012939 56 230 0.9 1.7 0.00 0.00 0.00 45 1015.6
20260503012437 56 230 1.7 2.6 0.00 0.00 0.00 44 1015.7
20260503011933 56 242 0.9 0.9 0.00 0.00 0.00 44 1015.7
20260503011430 56 241 0.9 0.9 0.00 0.00 0.00 45 1015.7
20260503010927 57 226 2.6 2.6 0.00 0.00 0.00 42 1015.7
20260503010424 58 234 1.7 1.7 0.00 0.00 0.00 41 1015.6
20260503005921 58 238 0.9 2.6 0.00 0.00 0.00 40 1015.7
20260503005418 59 240 1.7 2.6 0.00 0.00 0.00 41 1015.6
20260503004915 59 227 2.6 2.6 0.00 0.00 0.00 39 1015.6
20260503004412 59 228 1.7 2.6 0.00 0.00 0.00 39 1015.8
20260503003909 60 227 2.6 2.6 0.00 0.00 0.00 39 1015.7
20260503003405 61 238 1.7 2.6 0.00 0.00 0.00 37 1015.6
20260503002857 61 225 1.7 2.6 0.00 0.00 0.00 37 1015.7
20260503002355 61 256 0.9 2.6 0.00 0.00 0.00 37 1015.9
20260503001851 61 252 0.9 4.3 0.00 0.00 0.00 36 1015.9
20260503001347 62 211 2.6 5.2 0.00 0.00 0.00 36 1016.0
20260503000845 62 228 3.5 4.3 0.00 0.00 0.00 35 1015.9
20260503000342 62 222 2.6 6.1 0.00 0.00 0.00 35 1015.9
20260502235838 62 277 2.6 6.1 0.00 0.00 0.00 33 1015.9
20260502235336 62 254 3.5 7.8 0.00 0.00 0.00 34 1016.2
20260502234833 62 229 4.3 7.0 0.00 0.00 0.00 36 1016.1
20260502234329 63 219 1.7 2.6 0.00 0.00 0.00 33 1016.2
20260502233826 63 227 4.3 5.2 0.00 0.00 0.00 32 1016.3
20260502233322 63 268 1.7 6.1 0.00 0.00 0.00 32 1016.2
20260502232820 63 264 5.2 8.7 0.00 0.00 0.00 32 1016.2
20260502232316 63 296 2.6 7.0 0.00 0.00 0.00 31 1016.4
20260502231812 63 250 3.5 6.1 0.00 0.00 0.00 32 1016.3
20260502231311 63 251 2.6 7.0 0.00 0.00 0.00 32 1016.5
20260502230808 64 246 4.3 7.8 0.00 0.00 0.00 31 1016.5
20260502230306 64 222 3.5 6.1 0.00 0.00 0.00 31 1016.5
20260502225803 65 274 2.6 4.3 0.00 0.00 0.00 29 1016.4
20260502225259 64 277 0.9 1.7 0.00 0.00 0.00 32 1016.5
20260502224756 63 276 0.9 5.2 0.00 0.00 0.00 33 1016.6
20260502224252 64 275 1.7 2.6 0.00 0.00 0.00 34 1016.5
20260502223750 63 220 2.6 7.0 0.00 0.00 0.00 31 1016.8
20260502223248 64 219 4.3 6.1 0.00 0.00 0.00 30 1016.7
20260502222745 64 305 3.5 6.1 0.00 0.00 0.00 32 1016.7
20260502222242 64 305 0.9 5.2 0.00 0.00 0.00 33 1016.7
20260502221738 65 284 2.6 5.2 0.00 0.00 0.00 30 1016.8
20260502221235 64 293 1.7 4.3 0.00 0.00 0.00 33 1016.7
20260502220731 64 315 4.3 5.2 0.00 0.00 0.00 32 1016.9
20260502220227 64 290 3.5 7.8 0.00 0.00 0.00 33 1016.8
20260502215724 64 284 0.9 4.3 0.00 0.00 0.00 32 1016.9
20260502215221 63 261 1.7 6.1 0.00 0.00 0.00 34 1017.1
20260502214719 63 277 2.6 4.3 0.00 0.00 0.00 34 1017.1
20260502214216 62 273 2.6 2.6 0.00 0.00 0.00 33 1017.1
20260502213713 62 282 2.6 6.1 0.00 0.00 0.00 32 1017.2
20260502213210 62 303 0.9 7.8 0.00 0.00 0.00 35 1017.1
20260502212708 62 310 4.3 6.1 0.00 0.00 0.00 33 1017.5
20260502212200 64 270 0.9 1.7 0.00 0.00 0.00 34 1017.6
20260502211656 63 234 2.6 6.1 0.00 0.00 0.00 34 1017.6
20260502211154 62 275 1.7 7.8 0.00 0.00 0.00 34 1017.6
20260502210650 62 302 6.1 7.8 0.00 0.00 0.00 34 1017.7
20260502210148 62 284 0.0 5.2 0.00 0.00 0.00 32 1017.9
20260502205644 62 212 2.6 2.6 0.00 0.00 0.00 34 1017.8
20260502205141 61 321 0.9 6.1 0.00 0.00 0.00 32 1018.0
20260502204638 62 338 2.6 5.2 0.00 0.00 0.00 33 1018.0
20260502204136 61 207 3.5 5.2 0.00 0.00 0.00 34 1018.2
20260502203632 61 327 3.5 6.1 0.00 0.00 0.00 33 1018.3
20260502203131 62 280 0.9 4.3 0.00 0.00 0.00 33 1018.4
20260502202625 61 232 3.5 5.2 0.00 0.00 0.00 36 1018.4
20260502202123 61 274 2.6 7.0 0.00 0.00 0.00 33 1018.5
20260502201620 60 313 1.7 5.2 0.00 0.00 0.00 35 1018.6
20260502201116 59 328 2.6 5.2 0.00 0.00 0.00 36 1018.7
20260502200612 60 348 1.7 5.2 0.00 0.00 0.00 34 1018.6
20260502200109 60 229 4.3 8.7 0.00 0.00 0.00 35 1018.9
20260502195607 60 307 5.2 7.0 0.00 0.00 0.00 33 1018.8
20260502195057 60 242 4.3 6.1 0.00 0.00 0.00 34 1018.9
20260502194554 60 299 4.3 7.0 0.00 0.00 0.00 34 1019.0
20260502194050 59 302 4.3 6.1 0.00 0.00 0.00 34 1019.0
20260502193548 59 280 0.9 6.1 0.00 0.00 0.00 34 1019.1
20260502193044 58 342 3.5 5.2 0.00 0.00 0.00 35 1019.1
20260502192540 58 37 3.5 5.2 0.00 0.00 0.00 37 1019.2
20260502192038 59 34 2.6 7.8 0.00 0.00 0.00 35 1019.1
20260502191534 58 194 4.3 6.1 0.00 0.00 0.00 36 1019.2
20260502191033 59 247 5.2 6.1 0.00 0.00 0.00 35 1019.3
20260502190530 59 331 3.5 7.8 0.00 0.00 0.00 32 1019.4
20260502190026 60 297 0.0 1.7 0.00 0.00 0.00 35 1019.3
20260502185521 58 319 0.0 5.2 0.00 0.00 0.00 39 1019.4
20260502185019 59 265 3.5 5.2 0.00 0.00 0.00 36 1019.6
20260502184514 59 222 3.5 6.1 0.00 0.00 0.00 36 1019.5
20260502184011 60 271 4.3 6.1 0.00 0.00 0.00 36 1019.7
20260502183507 60 295 3.5 5.2 0.00 0.00 0.00 36 1019.7
20260502183003 59 188 1.7 1.7 0.00 0.00 0.00 38 1019.8
20260502182457 57 258 0.9 2.6 0.00 0.00 0.00 39 1019.7
20260502181954 56 317 1.7 7.0 0.00 0.00 0.00 40 1019.9
20260502181452 59 345 2.6 8.7 0.00 0.00 0.00 37 1019.9
20260502180951 57 352 7.0 7.8 0.00 0.00 0.00 38 1019.9
20260502180447 56 312 0.0 5.2 0.00 0.00 0.00 39 1019.9
20260502170406 55 220 4.3 7.0 0.00 0.00 0.00 37 1020.7
20260502163849 56 2 4.3 7.0 0.00 0.00 0.00 38 1020.5
20260502163346 54 264 1.7 4.3 0.00 0.00 0.00 39 1020.6
20260502162844 54 335 2.6 5.2 0.00 0.00 0.00 39 1020.8
20260502162340 55 315 7.0 7.8 0.00 0.00 0.00 39 1020.9
20260502161837 54 289 1.7 6.1 0.00 0.00 0.00 41 1020.7
20260502161333 54 306 5.2 7.0 0.00 0.00 0.00 39 1020.8
20260502160832 54 343 0.0 1.7 0.00 0.00 0.00 40 1020.8
20260502160330 54 59 3.5 5.2 0.00 0.00 0.00 39 1020.9
20260502152259 53 318 1.7 7.0 0.00 0.00 0.00 40 1020.8
20260502151756 53 327 4.3 6.1 0.00 0.00 0.00 44 1020.8
20260502151253 53 308 4.3 5.2 0.00 0.00 0.00 40 1020.7
20260502150752 52 26 1.7 5.2 0.00 0.00 0.00 44 1020.8
20260502150248 52 336 3.5 4.3 0.00 0.00 0.00 45 1021.1
20260502130636 41 343 0.0 1.7 0.00 0.00 0.00 79 1020.6
20260502130134 41 307 2.6 2.6 0.00 0.00 0.00 80 1020.8
20260502123620 39 322 1.7 1.7 0.00 0.00 0.00 84 1020.7
20260502123116 38 310 0.9 1.7 0.00 0.00 0.00 85 1020.9
20260502122613 38 308 0.9 1.7 0.00 0.00 0.00 87 1020.8
20260502122109 37 302 0.0 0.9 0.00 0.00 0.00 88 1020.7
20260502121608 37 299 0.9 1.7 0.00 0.00 0.00 88 1020.7
20260502121105 37 305 0.9 1.7 0.00 0.00 0.00 89 1020.5
20260502120600 36 303 0.0 0.9 0.00 0.00 0.00 88 1020.4
20260502115556 36 304 0.9 1.7 0.00 0.00 0.00 88 1020.3
20260502115051 36 304 0.9 1.7 0.00 0.00 0.00 88 1020.2
20260502114548 36 308 1.7 1.7 0.00 0.00 0.00 88 1020.1
20260502114045 36 307 0.9 0.9 0.00 0.00 0.00 89 1020.0
20260502113543 35 306 0.9 1.7 0.00 0.00 0.00 89 1020.2
20260502113041 35 306 0.9 1.7 0.00 0.00 0.00 89 1020.1
20260502112538 35 307 1.7 1.7 0.00 0.00 0.00 89 1019.8
20260502112036 36 305 0.9 1.7 0.00 0.00 0.00 88 1020.0
20260502111533 35 306 0.9 1.7 0.00 0.00 0.00 88 1019.7
20260502111030 35 302 1.7 2.6 0.00 0.00 0.00 88 1019.9
20260502110527 36 305 1.7 2.6 0.00 0.00 0.00 88 1019.9
20260502110025 36 305 0.9 1.7 0.00 0.00 0.00 87 1019.8
20260502105522 36 305 0.9 2.6 0.00 0.00 0.00 87 1019.9
20260502105020 36 305 0.9 0.9 0.00 0.00 0.00 87 1019.8
20260502104517 36 305 0.9 0.9 0.00 0.00 0.00 87 1019.7
20260502104014 36 305 0.9 1.7 0.00 0.00 0.00 87 1019.6
20260502103506 37 305 0.9 0.9 0.00 0.00 0.00 87 1019.6
20260502103004 37 308 1.7 1.7 0.00 0.00 0.00 86 1019.7
20260502102500 37 302 0.9 1.7 0.00 0.00 0.00 87 1019.6
20260502101956 37 302 0.9 1.7 0.00 0.00 0.00 87 1019.5
20260502101455 37 302 0.9 0.9 0.00 0.00 0.00 86 1019.5
20260502100953 37 302 0.9 1.7 0.00 0.00 0.00 86 1019.7
20260502100451 37 302 0.9 1.7 0.00 0.00 0.00 86 1019.7
20260502091426 38 308 0.9 0.9 0.00 0.00 0.00 84 1019.5
20260502090923 38 307 0.0 0.9 0.00 0.00 0.00 84 1019.5
20260502090420 38 307 0.0 0.9 0.00 0.00 0.00 84 1019.4
20260502071303 42 309 0.9 0.9 0.00 0.00 0.00 75 1019.3
20260502070801 42 305 0.9 0.9 0.00 0.00 0.00 75 1019.4
20260502070258 42 342 0.9 0.9 0.00 0.00 0.00 75 1019.5
20260502065757 41 343 0.0 0.0 0.00 0.00 0.00 76 1019.7
20260502065255 42 343 0.0 0.9 0.00 0.00 0.00 76 1019.3
20260502064752 42 343 0.0 0.9 0.00 0.00 0.00 76 1019.4
20260502064250 42 343 0.0 0.9 0.00 0.00 0.00 76 1019.6
20260502063747 42 343 0.0 0.9 0.00 0.00 0.00 75 1019.5
20260502063245 43 343 0.9 0.9 0.00 0.00 0.00 73 1019.5
20260502062742 43 344 0.9 0.9 0.00 0.00 0.00 72 1019.6
20260502062240 43 344 0.9 0.9 0.00 0.00 0.00 70 1019.7
20260502061738 44 345 0.9 0.9 0.00 0.00 0.00 67 1019.6
20260502061235 45 346 0.9 2.6 0.00 0.00 0.00 65 1019.7
20260502060730 45 346 2.6 2.6 0.00 0.00 0.00 66 1019.5
20260502060226 45 344 0.0 1.7 0.00 0.00 0.00 66 1019.6
20260502055724 45 343 0.9 1.7 0.00 0.00 0.00 66 1019.4
20260502055221 45 342 0.9 1.7 0.00 0.00 0.00 65 1019.5
20260502054720 45 342 0.9 1.7 0.00 0.00 0.00 66 1019.3
20260502054212 45 341 0.9 1.7 0.00 0.00 0.00 65 1019.4
20260502053710 46 340 1.7 1.7 0.00 0.00 0.00 64 1019.3
20260502053207 46 342 0.9 1.7 0.00 0.00 0.00 63 1019.3
20260502052705 46 335 0.9 2.6 0.00 0.00 0.00 64 1019.3
20260502052203 46 335 0.0 1.7 0.00 0.00 0.00 63 1019.1
20260502051700 46 335 0.9 0.9 0.00 0.00 0.00 63 1019.1
20260502051158 46 335 1.7 1.7 0.00 0.00 0.00 63 1019.3
20260502050654 46 334 0.0 0.9 0.00 0.00 0.00 64 1019.3
20260502050151 46 334 0.9 0.9 0.00 0.00 0.00 66 1019.2
20260502045647 46 335 0.9 1.7 0.00 0.00 0.00 65 1019.2
20260502045145 46 333 0.0 0.0 0.00 0.00 0.00 65 1019.2
20260502044641 47 333 0.0 0.0 0.00 0.00 0.00 64 1019.3
20260502044137 47 333 0.0 0.9 0.00 0.00 0.00 62 1019.3
20260502043635 47 333 0.9 0.9 0.00 0.00 0.00 61 1019.2
20260502043133 48 333 0.9 0.9 0.00 0.00 0.00 60 1019.2
20260502042626 48 332 0.9 0.9 0.00 0.00 0.00 59 1019.1
20260502042123 48 331 0.0 1.7 0.00 0.00 0.00 59 1019.1
20260502041621 48 331 0.9 1.7 0.00 0.00 0.00 59 1019.1
20260502041118 48 331 0.0 0.9 0.00 0.00 0.00 60 1019.2
20260502040615 48 331 0.9 0.9 0.00 0.00 0.00 60 1019.1
20260502040112 48 331 0.9 0.9 0.00 0.00 0.00 61 1019.1
20260502035608 47 331 0.0 0.0 0.00 0.00 0.00 62 1019.2
20260502035105 48 331 0.0 0.0 0.00 0.00 0.00 62 1019.0
20260502034603 48 331 0.0 0.0 0.00 0.00 0.00 62 1018.9
20260502034101 49 331 0.0 0.9 0.00 0.00 0.00 60 1019.1
20260502033559 49 334 1.7 1.7 0.00 0.00 0.00 59 1019.2
20260502033056 49 343 1.7 2.6 0.00 0.00 0.00 59 1019.1
20260502032552 50 342 0.9 1.7 0.00 0.00 0.00 59 1018.9
20260502032049 50 332 0.9 1.7 0.00 0.00 0.00 59 1018.9
20260502031547 49 330 1.7 1.7 0.00 0.00 0.00 59 1018.8
20260502031044 49 329 0.0 0.9 0.00 0.00 0.00 59 1018.9
20260502030543 50 329 0.0 0.9 0.00 0.00 0.00 60 1018.9
20260502030040 50 329 0.0 0.9 0.00 0.00 0.00 58 1018.7
20260502025538 50 329 0.9 0.9 0.00 0.00 0.00 57 1018.7
20260502025036 50 329 0.9 0.9 0.00 0.00 0.00 57 1018.7
20260502024532 50 329 0.0 0.9 0.00 0.00 0.00 57 1018.7
20260502024031 50 331 1.7 1.7 0.00 0.00 0.00 56 1018.7
20260502023528 51 343 1.7 1.7 0.00 0.00 0.00 56 1018.7
20260502023026 51 343 1.7 2.6 0.00 0.00 0.00 55 1018.5
20260502022522 51 349 0.9 1.7 0.00 0.00 0.00 54 1018.5
20260502022020 51 337 0.9 0.9 0.00 0.00 0.00 55 1018.4
20260502021517 51 335 1.7 2.6 0.00 0.00 0.00 54 1018.5
20260502021014 51 1 1.7 4.3 0.00 0.00 0.00 54 1018.2
20260502020512 51 9 3.5 5.2 0.00 0.00 0.00 52 1018.1
20260502020009 51 356 1.7 4.3 0.00 0.00 0.00 53 1017.9
20260502015507 51 6 1.7 4.3 0.00 0.00 0.00 53 1017.8
20260502015003 51 7 3.5 5.2 0.00 0.00 0.00 53 1017.9
20260502014459 51 355 4.3 5.2 0.00 0.00 0.00 52 1017.9
20260502013956 51 344 2.6 4.3 0.00 0.00 0.00 54 1017.8
20260502013452 52 356 1.7 6.1 0.00 0.00 0.00 54 1017.7